This is the latest recevied weather packets stored in our database for station/object KC3WWU. If no packets are shown the sender has not sent any weather packets the latest 1 day(s).
| Time | Temp. | Humidity | Pressure | Rain* | Wind** | Luminosity | Snow |
|---|---|---|---|---|---|---|---|
| 1778104124 | 9.44° C | 93% | 1008.4 hPa | 0 mm | - | 21 W/m² | - |
| 1778103821 | 9.44° C | 93% | 1008.2 hPa | 0 mm | - | 22 W/m² | - |
| 1778103216 | 9.44° C | 93% | 1008.4 hPa | 0 mm | - | 19 W/m² | - |
| 1778102913 | 10° C | 94% | 1007.9 hPa | 0 mm | - | 20 W/m² | - |
| 1778102304 | 10° C | 94% | 1008 hPa | 0 mm | - | 22 W/m² | - |
| 1778101092 | 10° C | 96% | 1007.6 hPa | 0 mm | - | 24 W/m² | - |
| 1778100788 | 10° C | 95% | 1007.6 hPa | 0 mm | - | 35 W/m² | - |
| 1778099880 | 10° C | 97% | 1007.5 hPa | 0 mm | - | 33 W/m² | - |
| 1778098364 | 10° C | 98% | 1007.7 hPa | 0 mm | - | 54 W/m² | - |
| 1778096848 | 10° C | 99% | 1007.3 hPa | 0 mm | - | 39 W/m² | - |
| 1778096544 | 10° C | 99% | 1007.4 hPa | 0 mm | - | 41 W/m² | - |
| 1778095332 | 10° C | 99% | 1007.2 hPa | 0 mm | - | 50 W/m² | - |
| 1778094719 | 10° C | 99% | 1007.2 hPa | 0 mm | - | 51 W/m² | - |
| 1778094113 | 10° C | 99% | 1007 hPa | 0 mm | - | 72 W/m² | - |
| 1778090476 | 11.11° C | 99% | 1006.9 hPa | 0 mm | - | 84 W/m² | - |
| 1778089568 | 11.67° C | 99% | 1006.1 hPa | 0 mm | - | 98 W/m² | - |
| 1778088658 | 12.22° C | 99% | 1006.2 hPa | 0 mm | - | 187 W/m² | - |
| 1778087749 | 12.22° C | 99% | 1006.1 hPa | 0 mm | - | 285 W/m² | - |
| 1778085624 | 11.67° C | 99% | 1006 hPa | 0 mm | - | 81 W/m² | - |
| 1778085320 | 11.67° C | 99% | 1006 hPa | 0 mm | - | 102 W/m² | - |
| 1778084107 | 12.22° C | 99% | 1005.9 hPa | 0 mm | - | 65 W/m² | - |
| 1778081480 | 13.33° C | 99% | 1005.1 hPa | 0 mm | - | 60 W/m² | - |
| 1778081177 | 13.89° C | 99% | 1005.1 hPa | 0 mm | - | 78 W/m² | - |
| 1778079360 | 13.33° C | 99% | 1004.7 hPa | 0 mm | - | 63 W/m² | - |
| 1778078451 | 13.33° C | 99% | 1004.7 hPa | 0 mm | - | 45 W/m² | - |
* Rain latest hour (hover to see other rain measurements)
** Current wind speed in m/s (hover to see current wind gust speed)